Airfield :
LOGIN :

Register | Disclaimer

   EN    FR    IT 

 










Legend :    VFR   Marginal VFR   IFR   Intensive IFR   Very Intensive IFR
Visi :
Ceiling :
>= 8 km
>= 3000ft
5 to 8 km
1000 to 3000 ft
1500m to 5 km
500 to 1000 ft
800 to 1500m
200 to 500 ft
< 800m
< 200 ft
Symbols :   Thunderstorms  Fog  Heavy snow  Heavy precipitations  Wind > 20 kt
SIGMETs :     Misc.  Thunderstorms  Icing  Turbulence  Mountain Waves  Volcanic Ashes







- Airport Elevation : 939 ft


LKKB - Kbely Air Base

CURRENT METAR :
  • 250800Z 21010KT 160V240 9999 FEW030 BKN250 18/09 Q1011 NOSIG

EXPIRED METARs :
  • 250700Z 19008KT CAVOK 16/08 Q1011 NOSIG
  • 250600Z 20007KT CAVOK 14/09 Q1012 NOSIG

TAF TAF LKKB
Valid from the 25 at 06:00 until the 26 at 06:00 UTC


250500Z 2506/2606 21010KT CAVOK
BECMG 2508/2510 22014G30KT
TEMPO 2512/2600 24018G36KT SCT035
TEMPO 2518/2602 SHRA BKN030
No reported NOTAMs for that airfield.



MET'MAP, your aeronautical weather chart ! - Copyright ORBIFLY December 2007 - Disclaimer

ORBIFLY MET'MAP TEAM :

Programming & Development : Alexandra Zaïnal
Concept & Development : Baudouin d'Aumeries
Co-Development & Prog : Marc-Olivier Méhu
Technical & hardware support : Manuel Goepfert

Contact : metmap@orbifly.com




SOURCES & CREDITS :

   NOAA